Flag for South Africa Weather past 2 weeks in Pretoria, South Africa

Now
64 °F

Mild.


Feels Like: 64 °F
Forecast: 47 / 72 °F
Wind: 8 mph from East

Location: Waterkloof Lmb

Current Time: May 22, 2015 at 6:43:51 PM

Latest Report: May 22, 2015 at 6:00 PM


Visibility: N/A

Pressure: 30.45 "Hg

Humidity: 43%

Dew point: 41 °F

Location of PretoriaLocation

Historic Weather in Pretoria — Graph

°F

Pretoria temperature yesterday

Maximum temperature yesterday: 75 °F (at 1:00 PM)
Minimum temperature yesterday: 52 °F (at 7:00 AM)
Average temperature yesterday: 63 °F

Past Weeks' High & Low Weather Summary

 TemperatureHumidityPressure
High81 °F (May 15, 1:00 PM)94% (May 9, 4:00 AM)30.54 "Hg (May 9, 4:00 AM)
Low41 °F (May 14, 5:00 AM)10% (May 14, 4:00 PM)30.15 "Hg (May 13, 3:00 PM)
Average61 °F48%30.33 "Hg
* Reported May 7 5:00 PM — May 22 5:00 PM, Pretoria, Weather by CustomWeather, © 2015

Note: Actual official high and low records may vary slightly from our data, if they occured in-between our weather recording intervals... More about our weather records

Advertising

Pretoria weather history for previous 24 hours

 ConditionsComfort  
Time TempWeatherWind HumidityBarometerVisibility
5:00 PM
Fri, May 22
70 °FMild.8 mph35%30.42 "HgN/A
4:00 PM72 °FMild.9 mph31%30.42 "HgN/A
3:00 PM73 °FMild.10 mph29%30.42 "HgN/A
2:00 PM73 °FMild.12 mph31%30.42 "HgN/A
1:00 PM73 °FMild.13 mph29%30.45 "HgN/A
12:00 PM75 °FMild.13 mph27%30.48 "HgN/A
11:00 AM72 °FMild.16 mph27%30.48 "HgN/A
10:00 AM70 °FMild.13 mph31%30.48 "HgN/A
9:00 AM66 °FMild.10 mph37%30.48 "HgN/A
8:00 AM59 °FRefreshingly cool.5 mph42%30.48 "HgN/A
7:00 AM52 °FCool.7 mph50%30.45 "HgN/A
6:00 AM48 °FCool.3 mph58%30.45 "HgN/A
5:00 AM50 °FCool.5 mph54%30.42 "HgN/A
4:00 AM52 °FCool.6 mph50%30.42 "HgN/A
3:00 AM50 °FCool.5 mph58%30.45 "HgN/A
2:00 AM50 °FCool.3 mph58%30.42 "HgN/A
1:00 AM50 °FCool.3 mph62%30.42 "HgN/A
12:00 AM52 °FCool.3 mph58%30.45 "HgN/A
11:00 PM
Thu, May 21
52 °FCool.2 mph62%30.45 "HgN/A
10:00 PM54 °FCool.3 mph58%30.45 "HgN/A
9:00 PM55 °FRefreshingly cool.1 mph55%30.45 "HgN/A
8:00 PM55 °FRefreshingly cool.2 mph55%30.45 "HgN/A
7:00 PM61 °FRefreshingly cool.1 mph42%30.42 "HgN/A
6:00 PM64 °FMild.3 mph34%30.42 "HgN/A
Weather by CustomWeather, © 2015

See weather overviewHow to use our weather pages